Regional Weather Roundup
Issued by NWS

Home | Current Version | Previous Version | Text Only | Print | Product List | Glossary On
Versions: 1 2 3 4 5 6 7 8 9 10 11 12 13 14 15 16 17 18 19 20 21 22 23 24 25 26 27 28 29 30 31 32 33 34 35 36 37 38 39 40 41 42 43 44 45 46 47 48 49 50
000
ASUS45 KPSR 170810
RWRAZ

ARIZONA REGIONAL HOURLY WEATHER ROUNDUP
NATIONAL WEATHER SERVICE PHOENIX AZ
100 AM MST WED SEP 17 2014

NOTE: FAIR INDICATES FEW OR NO CLOUDS BELOW 12,000 FEET WITH NO
SIGNIFICANT WEATHER AND/OR OBSTRUCTIONS TO VISIBILITY.

AZZ001>003-036-170900-
NORTHWEST ARIZONA

CITY           SKY/WX    TMP DP  RH WIND       PRES   REMARKS
BULLHEAD CITY  MOCLDY    82  68  61 S7        29.81F
KINGMAN        CLOUDY    73  58  59 E8        29.98F
$$

AZZ004>008-015-016-018-170900-
NORTH CENTRAL ARIZONA

CITY           SKY/WX    TMP DP  RH WIND       PRES   REMARKS
GRAND CANYON   CLOUDY    64  49  57 E3        30.20S
PRESCOTT       CLOUDY    66  57  72 SE5       30.11F
FLAGSTAFF      CLOUDY    57  54  89 E5        30.23F
PAYSON         CLOUDY    64  61  88 E3        30.14S
PAGE           CLOUDY    74  53  48 SE8       30.06F
$$

AZZ009>014-017-170900-
NORTHEAST ARIZONA

CITY           SKY/WX    TMP DP  RH WIND       PRES   REMARKS
WINSLOW        LGT RAIN  65  62  90 SE7       30.13F
SAINT JOHNS    CLOUDY    63  59  87 E3        30.17F
WINDOW ROCK    CLOUDY    60  53  77 CALM      30.25F
SHOW LOW       CLOUDY    57  55  94 CALM      30.23F
$$

AZZ023-170900-
GREATER PHOENIX AREA

CITY           SKY/WX    TMP DP  RH WIND       PRES   REMARKS
PHOENIX        CLOUDY    84  65  52 E6        29.82F
BUCKEYE          N/A     81  66  61 E9        29.82F
LUKE AFB       CLOUDY    83  65  54 N7        29.83F
DEER VALLEY    CLOUDY    82  62  50 NE6       29.85F
SCOTTSDALE     CLOUDY    84  63  49 NE7       29.86F
MESA-GATEWAY   CLOUDY   N/A N/A N/A NE5       29.87S
$$

AZZ027-028-170900-
SOUTHWEST MARICOPA COUNTY AND PINAL COUNTY

CITY           SKY/WX    TMP DP  RH WIND       PRES   REMARKS
CASA GRANDE    CLOUDY    79  66  65 E12       29.85F
$$

AZZ503-504-507>509-170900-
SOUTHEAST ARIZONA

CITY           SKY/WX    TMP DP  RH WIND       PRES   REMARKS
TUCSON         LGT RAIN  75  68  78 SE6       29.92F
DAVIS-MONTHAN  CLOUDY    74  69  84 E7        29.90F
NOGALES        RAIN      70  65  84 S6        29.97S
SIERRA VISTA   LGT RAIN  66  64  94 SE3       30.07R
DOUGLAS        CLOUDY    71  63  75 E6        30.03S
SAFFORD        CLOUDY    70  65  84 E5        30.00F
$$

AZZ020-021-025-026-031-170900-
SOUTHWEST ARIZONA

CITY           SKY/WX    TMP DP  RH WIND       PRES   REMARKS
YUMA           MOCLDY    88  64  44 NE7       29.74F
$$

CAZ031-033-041-043-047-048-061-170900-
SOUTHERN CALIFORNIA

CITY           SKY/WX    TMP DP  RH WIND       PRES   REMARKS
DOWNTOWN L.A.  CLEAR     80  61  52 CALM      29.71F
L.A. AIRPORT   PTCLDY    78  58  49 CALM      29.73S
SAN DIEGO      PTCLDY    79  68  69 NW3       29.73F
BURBANK        CLEAR     85  55  35 CALM      29.75S
ONTARIO        PTCLDY    87  61  41 CALM      29.78F
RIVERSIDE      CLEAR     88  65  46 SE6       29.77F
PALM SPRINGS   CLEAR     89  66  46 N5        29.79F
EL CENTRO NAS  CLEAR     85  62  46 CALM      29.73S
IMPERIAL       PTCLDY    87  65  47 CALM      29.73S
BLYTHE         PTCLDY    83  68  60 W6        29.78F
NEEDLES        MOCLDY    82  70  66 SW5       29.82F
$$

NVZ020-UTZ003-170900-
SOUTHERN NEVADA-UTAH

CITY           SKY/WX    TMP DP  RH WIND       PRES   REMARKS
LAS VEGAS      MOCLDY    85  54  34 SW8       29.84F
SALT LAKE CITY CLEAR     74  40  29 S12       29.95S
$$

NMZ009-TXZ055-170900-
NEW MEXICO-WEST TEXAS

CITY           SKY/WX    TMP DP  RH WIND       PRES   REMARKS
ALBUQUERQUE    CLOUDY    62  53  72 SE3       30.21F
EL PASO        CLOUDY    69  64  84 N12       30.08F
$$


........................KEY........................
SKY/WX - SKY CONDITION/WEATHER
TMP    - TEMPERATURE IN FAHRENHEIT
DP     - DEW POINT IN FAHRENHEIT
RH     - RELATIVE HUMIDITY IN PERCENT
WIND   - DIRECTION AND SPEED IN MILES PER HOUR (MPH)
VRB    - VARIABLE WIND DIRECTION
PRES   - MEAN SEA LEVEL PRESSURE IN INCHES OF MERCURY
         F - FALLING PRESSURE   R - RISING PRESSURE
         S - STEADY PRESSURE
VSB    - VISIBILITY IN MILES
HX     - HEAT INDEX IN FAHRENHEIT
WCI    - WIND CHILL INDEX IN FAHRENHEIT
TC     - TEMPERATURE IN CELSIUS WHICH IS ALSO KNOWN AS
         TEMPERATURE IN CENTIGRADE
AFB    - AIR FORCE BASE
         LUKE AFB IS LUKE AIR FORCE BASE
         DAVIS-MONTHAN IS DAVIS-MONTHAN AIR FORCE BASE
NAS    - NAVAL AIR STATION
         EL CENTRO NAS IS EL CENTRO NAVAL AIR STATION
N/A    - NOT AVAILABLE


USA.gov is the U.S. government's official web portal to all federal, state and local government web resources and services.